User: anonymous   Login
Location: Newark
(41.9000°N, 12.4833°E)
Time: 02:18:31
(UTC+00:00)
Language:

KKS-1 - Orbit

View from above orbital plane
View from above orbital plane
View from above satellite
View from above satellite

Ground track
Ground track

The orbit data is extracted from the following two-line orbital elements,

1 33499U 09002H   19320.15882592  .00000078  00000-0  19578-4 0  9993
2 33499  98.3367 163.5903 0010401  87.8682 272.3717 14.75479279581411
Epoch (UTC): 16 November 2019 03:48:42
Eccentricity: 0.0010401
inclination: 98.3367°
perigee height: 636 km
apogee height: 651 km
right ascension of ascending node: 163.5903°
argument of perigee: 87.8682°
revolutions per day: 14.75479279
mean anomaly at epoch: 272.3717°
orbit number at epoch: 58141

The dashed part of the orbit path shows where the satellite is in the earth's shadow,  

DLR